Change the Weather History Date:

Sunday, January 23, 2000

  Actual Average Record
Temperature  
Mean Temperature 21 °F -  
Max Temperature 30 °F 40 °F 67 °F (1981)
Min Temperature 12 °F 17 °F -16 °F (1963)
Degree Days  
Heating Degree Days 44    
Moisture  
Dew Point 11 °F    
Average Humidity 62    
Maximum Humidity 80    
Minimum Humidity 43    
Precipitation  
Precipitation 0.00 in - - ()
Sea Level Pressure  
Sea Level Pressure 30.17 in    
Wind  
Wind Speed 8 mph (NNW)    
Max Wind Speed 17 mph    
Max Gust Speed 23 mph    
Visibility 9 miles    
Events      
Averages and records for this station are not official NWS values.
T = Trace of Precipitation, MM = Missing Value Source: NWS Daily Summary

Daily Weather History Graph

Daily Weather History Graph

Search for Another Location

Airport or City:

Trip Planner

Search our weather history database for the weather conditions in past years. The results will help you decide how hot, cold, wet, or windy it might be!

Date:

Astronomy

Jan. 23, 2000 Rise Set
Actual Time 7:43 AM CST 5:34 PM CST
Civil Twilight 7:14 AM CST 6:03 PM CST
Nautical Twilight 6:41 AM CST 6:36 PM CST
Astronomical Twilight 6:09 AM CST 7:08 PM CST
Moon 8:43 PM CST (1/23) 9:33 AM CST (1/23)
Length of Visible Light 10h 49m
Length of Day
9h 50m
Waning Gibbous, 91% of the Moon is Illuminated
Jan 23
Waning Gibbous
Jan 28
Last Quarter
Feb 5
New
Feb 12
First Quarter
Feb 19
Full

Hourly Weather History & Observations

Time (CST) Temp. Windchill Dew Point Humidity Pressure Visibility Wind Dir Wind Speed Gust Speed Precip Events Conditions
12:11 AM 28.4 °F 21.2 °F 19.4 °F 69% 30.04 in 10.0 mi North 6.9 mph - N/A   Scattered Clouds
12:31 AM 28.4 °F 22.2 °F 17.6 °F 64% 30.04 in 10.0 mi North 5.8 mph - N/A   Mostly Cloudy
1:31 AM 21.2 °F 14.9 °F 14.0 °F 74% 30.06 in 10.0 mi NNW 4.6 mph - N/A   Scattered Clouds
1:50 AM 24.8 °F 20.5 °F 17.6 °F 74% 30.06 in 10.0 mi NW 3.5 mph - N/A   Overcast
2:11 AM 24.8 °F 19.1 °F 17.6 °F 74% 30.07 in 10.0 mi NW 4.6 mph - N/A   Mostly Cloudy
2:30 AM 26.6 °F 16.2 °F 19.4 °F 74% 30.08 in 10.0 mi NNE 11.5 mph 16.1 mph N/A   Mostly Cloudy
2:51 AM 26.6 °F 13.8 °F 17.6 °F 69% 30.09 in 10.0 mi North 17.3 mph 23.0 mph N/A   Mostly Cloudy
3:14 AM 24.8 °F 14.0 °F 12.2 °F 59% 30.10 in 10.0 mi NNE 11.5 mph - N/A   Scattered Clouds
3:29 AM 23.0 °F 11.1 °F 12.2 °F 63% 30.10 in 10.0 mi NNE 12.7 mph - N/A   Scattered Clouds
3:52 AM 23.0 °F 12.4 °F 12.2 °F 63% 30.11 in 10.0 mi North 10.4 mph 17.3 mph N/A   Scattered Clouds
4:11 AM 23.0 °F 11.1 °F 12.2 °F 63% 30.11 in 10.0 mi NNE 12.7 mph - N/A   Mostly Cloudy
5:11 AM 23.0 °F 10.1 °F 10.4 °F 59% 30.11 in 10.0 mi North 15.0 mph - N/A   Scattered Clouds
5:29 AM 23.0 °F 11.7 °F 8.6 °F 54% 30.11 in 10.0 mi NNE 11.5 mph - N/A   Scattered Clouds
5:50 AM 23.0 °F 11.7 °F 8.6 °F 54% 30.12 in 10.0 mi NNE 11.5 mph - N/A   Scattered Clouds
6:32 AM 21.2 °F 10.9 °F 8.6 °F 58% 30.12 in 10.0 mi NNE 9.2 mph - N/A   Scattered Clouds
6:51 AM 21.2 °F 11.7 °F 8.6 °F 58% 30.12 in 10.0 mi NNE 8.1 mph - N/A   Scattered Clouds
7:10 AM 21.2 °F 10.9 °F 8.6 °F 58% 30.13 in 10.0 mi NNE 9.2 mph - N/A   Mostly Cloudy
7:30 AM 21.2 °F 12.6 °F 8.6 °F 58% 30.13 in 10.0 mi NNE 6.9 mph - N/A   Scattered Clouds
7:50 AM 21.2 °F 11.7 °F 10.4 °F 63% 30.13 in 10.0 mi NNE 8.1 mph - N/A   Clear
8:12 AM 21.2 °F 16.4 °F 10.4 °F 63% 30.15 in 10.0 mi NNE 3.5 mph - N/A   Mostly Cloudy
8:30 AM 21.2 °F 11.7 °F 8.6 °F 58% 30.15 in 10.0 mi NNE 8.1 mph - N/A   Overcast
8:49 AM 21.2 °F 13.6 °F 10.4 °F 63% 30.15 in 10.0 mi NNE 5.8 mph - N/A   Overcast
9:10 AM 23.0 °F 15.8 °F 8.6 °F 54% 30.17 in 10.0 mi North 5.8 mph - N/A   Overcast
9:29 AM 24.8 °F 14.6 °F 10.4 °F 54% 30.17 in 10.0 mi North 10.4 mph - N/A   Overcast
9:51 AM 24.8 °F 14.6 °F 8.6 °F 50% 30.19 in 10.0 mi NNW 10.4 mph - N/A   Scattered Clouds
10:12 AM 21.2 °F 10.9 °F 8.6 °F 58% 30.21 in 2.5 mi NNW 9.2 mph - N/A   Mostly Cloudy
10:29 AM 21.2 °F 12.6 °F 12.2 °F 68% 30.22 in 1.5 mi North 6.9 mph - N/A   Overcast
10:52 AM 21.2 °F 11.7 °F 15.8 °F 80% 30.22 in 1.0 mi North 8.1 mph - N/A   Overcast
11:09 AM 21.2 °F 11.7 °F 15.8 °F 80% 30.22 in 2.0 mi North 8.1 mph - N/A   Overcast
11:52 AM 21.2 °F 11.7 °F 15.8 °F 80% 30.22 in 1.5 mi NNW 8.1 mph - N/A   Overcast
12:13 PM 23.0 °F 18.4 °F 15.8 °F 74% 30.22 in 10.0 mi WNW 3.5 mph - N/A   Mostly Cloudy
1:12 PM 24.8 °F 14.6 °F 17.6 °F 74% 30.21 in 10.0 mi West 10.4 mph - N/A   Mostly Cloudy
1:30 PM 26.6 °F 19.1 °F 17.6 °F 69% 30.20 in 10.0 mi WNW 6.9 mph - N/A   Mostly Cloudy
2:12 PM 26.6 °F 16.8 °F 17.6 °F 69% 30.20 in 10.0 mi WNW 10.4 mph - N/A   Mostly Cloudy
2:33 PM 28.4 °F 19.1 °F 17.6 °F 64% 30.19 in 10.0 mi West 10.4 mph - N/A   Scattered Clouds
2:50 PM 28.4 °F 20.4 °F 17.6 °F 64% 30.19 in 10.0 mi West 8.1 mph - N/A   Scattered Clouds
3:11 PM 30.2 °F 19.3 °F 14.0 °F 51% 30.19 in 10.0 mi NW 15.0 mph 21.9 mph N/A   Clear
3:30 PM 30.2 °F 20.8 °F 12.2 °F 47% 30.19 in 10.0 mi NNW 11.5 mph - N/A   Clear
3:49 PM 30.2 °F 21.9 °F 10.4 °F 44% 30.19 in 10.0 mi NNW 9.2 mph 16.1 mph N/A   Clear
4:14 PM 30.2 °F 21.3 °F 10.4 °F 44% 30.19 in 10.0 mi NW 10.4 mph - N/A   Clear
4:29 PM 30.2 °F 21.9 °F 10.4 °F 44% 30.20 in 10.0 mi NW 9.2 mph - N/A   Clear
5:12 PM 28.4 °F 19.7 °F 8.6 °F 43% 30.21 in 10.0 mi NNW 9.2 mph - N/A   Clear
5:33 PM 24.8 °F 17.9 °F 6.8 °F 46% 30.22 in 10.0 mi NNW 5.8 mph - N/A   Clear
5:50 PM 21.2 °F 12.6 °F 5.0 °F 50% 30.22 in 10.0 mi NNW 6.9 mph - N/A   Clear
6:13 PM 17.6 °F 7.3 °F 3.2 °F 53% 30.22 in 10.0 mi North 8.1 mph - N/A   Clear
6:34 PM 17.6 °F 10.7 °F 3.2 °F 53% 30.23 in 10.0 mi North 4.6 mph - N/A   Clear
6:50 PM 17.6 °F 12.3 °F 6.8 °F 63% 30.23 in 10.0 mi North 3.5 mph - N/A   Clear
7:14 PM 15.8 °F - 3.2 °F 58% 30.24 in 10.0 mi Calm Calm - N/A   Clear
7:30 PM 12.2 °F 2.9 °F 3.2 °F 67% 30.24 in 10.0 mi SSW 5.8 mph - N/A   Clear
7:53 PM 15.8 °F 5.1 °F 5.0 °F 62% 30.25 in 10.0 mi WSW 8.1 mph - N/A   Clear
8:15 PM 15.8 °F 8.6 °F 10.4 °F 79% 30.25 in 10.0 mi WSW 4.6 mph - N/A   Clear
8:30 PM 14.0 °F 6.5 °F 8.6 °F 79% 30.25 in 10.0 mi SW 4.6 mph - N/A   Clear
8:53 PM 15.8 °F - 10.4 °F 79% 30.26 in 10.0 mi Calm Calm - N/A   Clear
9:10 PM 15.8 °F - 8.6 °F 73% 30.26 in 10.0 mi Calm Calm - N/A   Clear
9:32 PM 15.8 °F 10.2 °F 10.4 °F 79% 30.25 in 10.0 mi WSW 3.5 mph - N/A   Clear
9:51 PM 14.0 °F - 8.6 °F 79% 30.25 in 10.0 mi Calm Calm - N/A   Clear
10:10 PM 14.0 °F - 8.6 °F 79% 30.24 in 10.0 mi Calm Calm - N/A   Clear
10:31 PM 12.2 °F - 8.6 °F 85% 30.25 in 10.0 mi Calm Calm - N/A   Clear
10:50 PM 14.0 °F - 10.4 °F 86% 30.24 in 10.0 mi Calm Calm - N/A   Clear
11:12 PM 12.2 °F 4.3 °F 6.8 °F 79% 30.24 in 10.0 mi SSW 4.6 mph - N/A   Clear